Regional Weather Roundup
Issued by NWS

Home | Current Version | Previous Version | Graphics & Text | Print | Product List | Glossary On
Versions: 1 2 3 4 5 6 7 8 9 10 11 12 13 14 15 16 17 18 19 20 21 22 23 24 25 26 27 28 29 30 31 32 33 34 35 36 37 38 39 40 41 42 43 44 45 46 47 48 49 50
000
ASUS43 KIND 291709
RWRIN

WEATHER ROUNDUP FOR INDIANA
NATIONAL WEATHER SERVICE INDIANAPOLIS IN
100 PM EDT FRI JUL 29 2016

NOTE: "FAIR" INDICATES FEW OR NO CLOUDS BELOW 12,000 FEET WITH NO
SIGNIFICANT WEATHER AND/OR OBSTRUCTIONS TO VISIBILITY.

* - STATION DOES NOT REPORT WEATHER SUCH AS PRECIPITATION OR FOG.

+ - STATION NOT QUALITY CONTROLLED BY THE NATIONAL WEATHER SERVICE.
    USE DATA WITH CAUTION...ESPECIALLY DEWPOINT AND RELATIVE
    HUMIDITY OBSERVATIONS.

INZ001>003-010>013-019-020-291800-
NORTHWEST INDIANA

CITY           SKY/WX    TMP DP  RH WIND       PRES   REMARKS
GARY /AIRPORT/ PTSUNNY   81  73  78 N8        29.93F
KNOX *+        PTSUNNY   79  61  53 CALM      29.93F
LA PORTE +     CLOUDY    83  74  74 CALM      29.95S
MICHIGAN CITY+ CLOUDY    79  72  78 CALM      29.94F
MONTICELLO +   CLOUDY    82  66  57 CALM      29.92F
RENSSELAER +   LGT RAIN  79  73  83 CALM      29.92F
VALPARAISO     CLOUDY    84  69  60 CALM      29.93F

$$

LMZ046-743>745-291800-
SOUTHERN LAKE MICHIGAN

STATION/POSITION TIME  TEMP    WIND        PRES    WAVE
                       AIR SEA DIR/SP/G            HT
                 (UTC) (F)     (DEG/KT/KT) (MB)    (FT)
BURNS HARBOR     1600   74      10/  4/  8 1014.2S
MICHIGAN CITY    1600   75     350/  7/  7   N/A
5NW MICH CITY    1600   75 77   10/  4/  6   N/A     1

$$

INZ004-005-014>016-021>024-291800-
NORTH CENTRAL INDIANA

CITY           SKY/WX    TMP DP  RH WIND       PRES   REMARKS
ELKHART        CLOUDY    77  66  69 NE8       29.97S
GOSHEN         CLOUDY    80  67  64 NE8       29.96R
LOGANSPORT +   CLOUDY    81  68  65 CALM      29.93F
PERU/GRISSOM   CLOUDY    84  68  57 VRB2      29.92S
ROCHESTER +    CLOUDY    82  72  69 CALM      29.94S
SOUTH BEND     PTSUNNY   79  70  74 NE6       29.95S
WARSAW +       MOSUNNY   81  68  65 NE3       29.94S

$$

INZ006>009-017-018-025>027-291800-
NORTHEAST INDIANA

CITY           SKY/WX    TMP DP  RH WIND       PRES   REMARKS
ANGOLA *+        N/A     72  64  78 N7        29.98R
AUBURN +       MOSUNNY   86  64  48 NE5       29.95F
FORT WAYNE     PTSUNNY   84  68  58 CALM      29.94F
HUNTINGTON +   MOSUNNY   82  67  60 CALM      29.93F

$$

INZ028-029-035-036-043>045-051>053-291800-
WEST CENTRAL INDIANA

CITY           SKY/WX    TMP DP  RH WIND       PRES   REMARKS
CRAWFORDSVL +  MOSUNNY   80  73  80 SW3       29.93F
GREENCASTLE +  MOSUNNY   81  77  89 CALM      29.94F
LAFAYETTE      CLOUDY    83  73  72 SW6       29.92S
TERRE HAUTE    CLOUDY    84  70  62 CALM      29.93S

$$

INZ030>032-037>040-046>048-054>057-064-065-291800-
CENTRAL INDIANA

CITY           SKY/WX    TMP DP  RH WIND       PRES   REMARKS
ANDERSON       MOSUNNY   84  68  58 CALM      29.94
COLUMBUS       PTSUNNY   81  75  83 S8        29.94F
FISHERS *+     PTSUNNY   84  73  70 SW6       29.92F
INDIANAPOLIS   PTSUNNY   84  70  62 SW7       29.94F THUNDER
-EAGLE CREEK   PTSUNNY   86  70  58 W5        29.92F
KOKOMO *+      CLOUDY    81  66  61 CALM      29.94S
MARION +       PTSUNNY   82  68  62 S3        29.94F
MT COMFORT *+  MOSUNNY   82  72  69 CALM      29.94F
SHELBYVILLE    SUNNY     84  71  65 SW7       29.94F
ZIONSVILLE +   CLOUDY    82  71  68 SW5       29.94F

$$

INZ033-034-041-042-049-050-058-059-291800-
EAST CENTRAL INDIANA

CITY           SKY/WX    TMP DP  RH WIND       PRES   REMARKS
MUNCIE         CLOUDY    84  69  60 N5        29.94F

$$

INZ060-061-067>069-081>083-085>088-291800-
SOUTHWEST INDIANA

CITY           SKY/WX    TMP DP  RH WIND       PRES   REMARKS
EVANSVILLE     PTSUNNY   82  73  74 S7        29.94F
HUNTINGBURG *+ PTSUNNY   82  72  69 S5        29.94F
WASHINGTON +   PTSUNNY   82  75  77 MISG      29.93F

$$

INZ062-063-066-070>080-084-089>092-291800-
SOUTH CENTRAL AND SOUTHEAST INDIANA

CITY           SKY/WX    TMP DP  RH WIND       PRES   REMARKS
BLOOMINGTON    PTSUNNY   82  72  71 SW6       29.94F
MADISON *+     CLOUDY    81  70  69 SW3       29.97F
NORTH VERNON + MOSUNNY   82  77  83 SW6       29.96F
SEYMOUR +      MOSUNNY   82  72  69 S3        29.94F

$$





USA.gov is the U.S. government's official web portal to all federal, state and local government web resources and services.